Vorticity
5 5 4 4 3 3 3 4 4 2 3 4 3 4 5 3 6 4 6 6 5 6 6 7 6 6 9 8 7 10 11 13 10 -5 -10 16 3 6 3 5 8 9 8 13 13
5 5 5 5 6 4 5 4 3 4 4 4 4 4 5 6 7 5 6 8 7 5 6 8 7 8 8 8 10 8 3 -4 2 -1 -2 12 3 4 7 3 3 2 4 5 3
5 4 5 5 4 4 4 5 5 5 5 6 5 5 5 5 6 5 8 7 6 6 5 8 9 8 10 10 6 3 3 -1 -0 8 9 5 4 2 2 10 5 3 3 2 1
7 7 6 5 5 6 5 6 7 5 7 6 6 5 7 7 7 7 8 9 7 6 9 6 9 8 10 9 2 6 3 2 1 16 8 7 4 4 -1 1 -1 14 9 2 2
7 9 9 8 7 8 8 7 6 7 7 6 8 7 7 8 7 9 7 4 5 9 8 11 10 8 10 7 5 11 -2 1 9 12 5 10 8 4 3 3 0 2 3 9 16
3 6 7 7 9 9 11 9 8 7 7 8 7 7 7 11 8 7 9 5 3 10 11 10 8 8 12 7 9 -0 -2 0 4 6 11 7 11 9 5 4 3 3 7 6 3
10 8 4 0 2 4 2 3 2 4 5 6 7 8 4 6 7 10 8 8 5 8 10 8 7 7 7 7 5 4 2 2 7 10 2 7 8 9 9 12 8 7 4 5 7
15 2 7 22 15 8 6 -1 5 2 6 9 8 3 14 8 13 8 10 11 7 10 6 8 5 1 3 -0 3 2 3 5 11 2 6 6 7 9 7 11 9 7 6 9 5
-7 -8 7 12 9 16 22 21 17 16 13 10 11 13 9 13 10 10 7 5 7 8 6 3 -1 -2 2 9 5 -1 12 10 6 7 4 13 10 7 5 7 8 12 11 9 7
5 0 -3 6 -0 -2 4 11 11 13 16 11 4 2 4 1 4 5 7 4 3 2 -1 1 5 6 10 3 15 17 11 2 8 -6 6 7 5 7 4 3 3 6 7 7 7
-6 5 6 2 6 3 5 -4 6 4 7 9 15 14 15 8 6 8 6 1 5 10 13 15 13 13 18 11 7 9 2 2 9 -2 5 9 4 7 5 6 4 9 5 6 7
18 21 8 2 8 11 -1 12 1 0 8 6 10 7 13 15 16 7 13 14 10 12 8 8 12 16 12 8 7 10 7 10 5 8 8 2 -0 6 5 7 7 12 7 10 7
18 5 10 -4 -12 24 3 7 3 6 2 5 6 5 -0 7 12 12 5 4 5 10 9 8 13 9 8 7 4 6 9 7 8 6 2 5 4 5 8 5 13 7 6 5 6
5 33 24 19 37 10 4 2 6 -5 7 6 2 9 7 7 6 -3 -1 7 13 2 8 4 7 5 9 9 4 9 9 7 8 8 6 3 5 5 7 8 3 5 12 9 7
26 -36 -14 -39 35 15 9 11 24 11 12 10 9 7 9 4 10 -3 0 -7 2 12 5 6 7 8 4 6 8 8 5 7 6 6 5 3 9 7 12 8 1 4 4 6 5
17 13 20 18 2 -63 -17 -34 -3 -2 11 -8 -1 3 4 15 12 11 5 2 8 9 6 10 4 5 7 7 10 6 6 10 5 4 3 7 8 3 9 11 12 10 2 7 5
9 12 6 13 13 0 25 8 12 22 3 7 16 5 6 3 3 7 9 12 4 13 7 11 16 6 4 8 6 5 7 4 4 1 4 8 6 12 9 6 3 6 2 6 7
14 11 23 9 9 15 26 21 20 -11 -7 -27 7 7 -10 -12 -5 -2 7 3 12 5 11 12 2 13 10 10 5 7 6 4 8 9 13 17 -1 3 3 2 2 -0 6 6 7
12 15 25 20 24 25 9 20 12 -5 7 -15 37 12 14 -21 -16 0 8 10 0 16 11 10 5 17 13 4 0 5 2 13 10 11 6 -0 7 3 5 6 5 6 7 9 12
19 16 -1 21 20 38 4 -11 1 8 14 36 27 18 26 15 22 14 3 11 30 -9 19 14 5 12 5 6 11 7 5 5 8 4 7 2 5 12 3 6 4 6 7 8 10
23 25 22 17 36 -9 -8 -3 22 11 21 24 22 13 -1 20 25 22 12 27 12 24 11 23 3 3 -6 7 19 12 10 8 8 1 3 8 1 3 12 15 7 4 5 10 6
26 28 -5 -7 7 6 -5 -19 64 64 40 24 22 14 13 27 14 -0 7 39 20 19 7 28 11 5 14 10 15 19 9 3 2 3 11 4 10 11 11 5 4 4 10 13 11
31 34 -9 10 -3 14 22 1 26 18 12 7 12 12 16 7 19 8 50 22 18 34 7 29 -17 14 8 3 17 4 4 14 16 -0 5 20 8 11 15 20 29 23 11 5 8
30 19 24 -1 6 12 16 7 -1 12 12 3 20 16 13 10 6 -4 45 4 30 15 6 25 11 9 11 27 9 -10 10 10 8 7 30 14 26 16 15 10 -4 5 7 37 10
18 27 71 20 51 0 -0 27 7 -7 -9 24 6 -8 19 16 21 31 -9 32 -4 28 19 20 8 13 5 2 -8 -17 -7 -7 26 20 2 -2 4 15 12 -7 11 0 -6 -29 -11
15 41 2 -53 44 7 7 20 -14 7 12 1 20 9 6 22 4 34 3 -38 -5 -16 13 11 7 2 -5 1 4 7 -12 19 -6 17 -15 17 -4 3 7 3 6 7 9 -1 2
9 14 31 -14 -14 31 7 8 5 44 19 14 11 20 3 1 24 22 14 20 19 21 -6 -15 5 12 -6 23 -15 27 6 23 10 -4 21 11 -3 4 2 4 8 4 -9 16 -8
Height
5810 5812 5814 5815 5816 5818 5820 5822 5824 5825 5827 5827 5828 5829 5831 5832 5832 5833 5835 5834 5836 5836 5836 5837 5837 5837 5838 5839 5839 5840 5841 5841 5843 5840 5833 5838 5836 5838 5838 5836 5836 5836 5834 5834 5835
5798 5801 5804 5805 5807 5808 5810 5812 5815 5815 5817 5819 5820 5820 5822 5824 5825 5825 5828 5827 5829 5828 5829 5831 5831 5831 5832 5833 5833 5834 5836 5831 5835 5832 5829 5834 5832 5831 5833 5832 5832 5831 5832 5832 5829
5787 5789 5792 5795 5797 5798 5800 5802 5805 5807 5808 5810 5812 5812 5813 5814 5817 5819 5819 5821 5821 5822 5822 5823 5824 5824 5825 5826 5827 5827 5829 5826 5828 5829 5826 5827 5829 5827 5827 5826 5824 5827 5824 5826 5824
5775 5777 5780 5782 5786 5787 5789 5792 5794 5796 5798 5800 5801 5803 5805 5806 5808 5812 5812 5812 5814 5814 5814 5816 5817 5818 5818 5819 5819 5822 5822 5820 5820 5824 5822 5822 5822 5822 5821 5820 5819 5821 5820 5815 5816
5763 5766 5768 5770 5774 5777 5778 5780 5784 5785 5787 5789 5791 5793 5795 5798 5799 5804 5802 5804 5805 5806 5806 5808 5809 5810 5812 5812 5812 5814 5815 5814 5815 5816 5815 5815 5816 5815 5815 5811 5815 5813 5813 5806 5812
5750 5754 5757 5759 5762 5765 5767 5769 5772 5773 5776 5778 5781 5783 5786 5789 5790 5794 5794 5797 5796 5798 5799 5799 5800 5802 5804 5805 5806 5805 5808 5806 5808 5807 5808 5809 5809 5808 5808 5805 5807 5806 5803 5798 5807
5736 5741 5744 5747 5750 5754 5756 5758 5761 5763 5766 5767 5770 5774 5778 5779 5782 5784 5785 5787 5788 5791 5791 5791 5793 5795 5796 5798 5799 5800 5801 5800 5800 5799 5800 5802 5802 5800 5796 5802 5801 5799 5795 5792 5800
5725 5727 5731 5733 5737 5740 5744 5745 5750 5752 5754 5757 5759 5763 5768 5768 5771 5774 5776 5778 5780 5781 5784 5784 5786 5787 5788 5790 5794 5791 5792 5793 5793 5787 5792 5793 5795 5789 5787 5794 5795 5794 5789 5784 5792
5712 5715 5719 5723 5726 5728 5731 5734 5738 5741 5744 5746 5749 5752 5758 5761 5763 5764 5767 5769 5770 5773 5775 5776 5777 5779 5779 5781 5783 5783 5784 5784 5784 5781 5779 5784 5788 5782 5778 5779 5784 5786 5781 5778 5782
5700 5702 5707 5712 5716 5718 5720 5723 5725 5729 5732 5734 5737 5742 5746 5752 5755 5755 5757 5759 5761 5763 5765 5768 5768 5768 5769 5773 5773 5776 5775 5776 5776 5770 5770 5770 5779 5780 5774 5769 5762 5775 5771 5772 5772
5686 5690 5693 5698 5702 5706 5709 5711 5714 5716 5718 5725 5727 5732 5733 5738 5745 5746 5748 5749 5751 5753 5756 5757 5755 5758 5764 5763 5764 5768 5763 5764 5769 5767 5761 5760 5769 5770 5770 5770 5757 5765 5762 5763 5762
5669 5675 5679 5682 5688 5692 5695 5696 5698 5704 5707 5713 5717 5719 5725 5727 5732 5736 5739 5740 5741 5744 5745 5744 5747 5754 5752 5752 5753 5757 5758 5759 5759 5760 5757 5752 5754 5757 5760 5757 5751 5755 5754 5754 5754
5652 5658 5663 5668 5672 5678 5679 5681 5686 5690 5691 5700 5706 5710 5717 5715 5721 5724 5729 5730 5731 5733 5735 5737 5743 5741 5742 5745 5743 5747 5749 5751 5751 5749 5747 5747 5748 5748 5747 5746 5747 5745 5744 5745 5744
5635 5641 5645 5652 5659 5656 5661 5666 5674 5676 5675 5689 5695 5700 5701 5705 5708 5715 5717 5719 5722 5725 5726 5728 5732 5732 5734 5735 5736 5739 5740 5738 5737 5741 5741 5742 5735 5738 5737 5736 5735 5737 5738 5737 5736
5622 5624 5628 5632 5639 5638 5640 5648 5656 5662 5658 5672 5677 5688 5693 5696 5700 5704 5702 5705 5711 5715 5715 5721 5720 5724 5721 5728 5729 5729 5727 5727 5728 5732 5732 5731 5728 5733 5728 5724 5725 5726 5729 5729 5728
5603 5605 5607 5614 5623 5620 5624 5629 5636 5643 5644 5658 5665 5672 5677 5683 5689 5687 5692 5696 5700 5700 5703 5708 5710 5710 5716 5715 5719 5719 5717 5721 5721 5719 5718 5723 5724 5726 5718 5714 5714 5716 5718 5717 5716
5584 5587 5589 5594 5606 5602 5603 5609 5615 5620 5640 5647 5653 5657 5660 5667 5673 5674 5678 5682 5688 5688 5692 5698 5700 5699 5704 5707 5708 5708 5710 5711 5709 5706 5711 5715 5711 5712 5708 5704 5702 5705 5708 5707 5705
5568 5571 5573 5581 5581 5589 5585 5586 5588 5623 5631 5637 5635 5636 5645 5653 5658 5661 5664 5669 5675 5678 5680 5681 5684 5688 5692 5696 5697 5700 5700 5701 5699 5699 5702 5703 5699 5699 5701 5700 5695 5694 5696 5697 5696
5555 5556 5558 5569 5569 5571 5568 5560 5577 5607 5618 5620 5616 5616 5628 5632 5641 5643 5647 5657 5663 5667 5666 5666 5673 5674 5679 5681 5686 5686 5685 5692 5689 5690 5688 5693 5695 5688 5690 5688 5686 5682 5682 5685 5686
5540 5542 5545 5555 5557 5556 5548 5550 5567 5594 5602 5593 5597 5606 5613 5616 5618 5623 5632 5643 5648 5654 5654 5657 5656 5662 5664 5669 5673 5672 5675 5676 5674 5676 5677 5684 5684 5683 5679 5681 5676 5673 5672 5674 5674
5520 5524 5536 5545 5544 5534 5531 5541 5559 5585 5580 5575 5579 5592 5600 5609 5608 5611 5617 5629 5633 5636 5640 5646 5642 5649 5647 5656 5658 5660 5660 5659 5661 5668 5666 5670 5673 5672 5670 5667 5665 5664 5663 5663 5662
5499 5503 5522 5528 5526 5520 5523 5545 5558 5559 5559 5561 5568 5573 5585 5595 5597 5600 5609 5614 5614 5619 5625 5632 5628 5633 5640 5643 5645 5646 5651 5651 5648 5655 5653 5657 5661 5661 5658 5657 5655 5653 5652 5654 5649
5482 5491 5504 5510 5507 5509 5527 5536 5538 5544 5549 5552 5558 5562 5572 5580 5586 5592 5599 5597 5603 5603 5607 5614 5611 5619 5625 5632 5633 5633 5638 5638 5639 5643 5643 5646 5654 5653 5650 5645 5641 5639 5639 5649 5641
5471 5476 5487 5491 5498 5502 5517 5524 5529 5537 5540 5544 5549 5552 5559 5568 5573 5584 5583 5589 5587 5591 5593 5596 5598 5605 5611 5622 5622 5621 5624 5628 5629 5629 5634 5633 5639 5642 5640 5636 5634 5633 5630 5632 5632
5458 5464 5473 5482 5484 5493 5505 5514 5520 5526 5532 5536 5540 5543 5553 5560 5563 5572 5570 5571 5574 5577 5581 5585 5587 5595 5600 5607 5606 5604 5609 5618 5618 5618 5618 5628 5624 5630 5628 5624 5626 5623 5618 5621 5622
5448 5456 5462 5474 5474 5482 5490 5499 5509 5518 5522 5528 5534 5539 5544 5546 5553 5562 5559 5555 5559 5567 5569 5569 5573 5577 5583 5590 5592 5590 5599 5606 5604 5609 5607 5611 5612 5618 5617 5615 5613 5611 5607 5610 5611
5438 5444 5444 5462 5466 5471 5480 5491 5499 5510 5514 5519 5526 5529 5532 5541 5540 5545 5549 5551 5554 5560 5562 5561 5564 5568 5569 5580 5580 5575 5590 5590 5594 5596 5597 5596 5602 5606 5603 5605 5603 5595 5600 5599 5600